Regional Weather Roundup
Issued by NWS Lake Charles, LA

Home | Current Version | Previous Version | Text Only | Print | Product List | Glossary On
Versions: 1 2 3 4 5 6 7 8 9 10 11 12 13 14 15 16 17 18 19 20 21 22 23 24 25 26 27
000
ASUS44 KLCH 251110
RWRLCH
REGIONAL WEATHER ROUNDUP
NATIONAL WEATHER SERVICE LAKE CHARLES LA
600 AM CDT WED MAY 25 2016

Note: "fair" indicates few or no clouds below 12,000 feet with no
significant weather and/or obstructions to visibility.


ACROSS SOUTHEAST TEXAS

CITY           SKY/WX    TMP DP  RH WIND       PRES   REMARKS
BEAUMONT       MOCLDY    78  75  90 SE9       30.02R
BEAUMONT CITY  NOT AVBL
ORANGE         CLOUDY    78  74  86 S7        30.05R
JASPER         CLOUDY    76  73  91 SE3       30.07R
$$

ACROSS CENTRAL LOUISIANA

CITY           SKY/WX    TMP DP  RH WIND       PRES   REMARKS
LEESVILLE      CLOUDY    76  74  91 SE12      30.05S
FULLERTON      CLOUDY    77  72  84 VRB6      30.04R
ALEXANDRIA INT CLOUDY    74  73  97 SE6       30.05R
ESLER FIELD    CLOUDY    75  72  90 S3        30.07R
DERIDDER       CLOUDY    76  75  95 SE7       30.07R
OAKDALE        CLOUDY    75  74  97 CALM      30.07R FOG
OPELOUSAS      CLOUDY    74  73  95 SE5       30.07R
$$

ACROSS SOUTHWEST AND SOUTH CENTRAL LOUISIANA

CITY           SKY/WX    TMP DP  RH WIND       PRES   REMARKS
SULPHUR        CLOUDY    80  76  89 SE10      30.06R
LAKE CHARLES   MOCLDY    78  75  90 SE7       30.05R
CHENNAULT INT  MOCLDY    77  75  94 SE6       30.06R
CAMERON PHI    CLOUDY    79  77  94 S14       30.07R
DEQUINCY       PTSUNNY   75  75 100 CALM      30.05R
JENNINGS       FAIR      75  73  94 SE3       30.06R
LAFAYETTE      PTCLDY    75  73  93 CALM      30.07S
NEW IBERIA     MOCLDY    75  73  93 E7        30.08R
ABBEVILLE      FAIR      75  75  98 SE6       30.07R
PATTERSON      PTCLDY    73  73 100 CALM      30.10R
SALT POINT       N/A     77  75  93 SE5       30.06R
$$

SELECTED SITES ACROSS THE REGION

CITY           SKY/WX    TMP DP  RH WIND       PRES   REMARKS
HOUSTON BUSH   MOCLDY    76  75  97 S6        29.99R
HOUSTON HOBBY  MOCLDY    79  76  90 SE3       29.98S
GALVESTON      CLOUDY    79  77  94 SE14      30.00S
COLLEGE STAT   CLOUDY    78  75  90 S10       29.97R
CONROE         CLOUDY    76  75  97 SE6       30.00R
HUNTSVILLE     CLOUDY    78  74  87 S7G17     29.98R
LUFKIN         CLOUDY    76  73  91 SE8       30.01R
SHREVEPORT     CLOUDY    75  73  93 SE7       30.01S
MONROE         CLOUDY    74  72  93 S6        30.07R
NATCHEZ MS     CLOUDY    73  70  88 S10       30.08S
BATON ROUGE    CLEAR     73  71  93 MISG      30.08S
N.O. INTL ARPT PTCLDY    76  72  87 SE7       30.09S
SLIDELL        PTCLDY    66  65  96 CALM      30.10R
$$

MARINE REPORTS

STATION/POSITION TIME  SKY/WX   TEMP    WIND        PRES    VSBY
                                AIR SEA DIR/SP/G
                 (UTC)          (F)     (DEG/KT/KT) (MB)    (MI)
BUOY 30 S HIGH I 1050            80 80  160/ 12/ 14 1015.3R
WVE H/P(F/S)=  4/ 6

SEA RIM ST PARK  1100            79     160/ 11/ 13 1017.1R
PORT ARTHUR      1000               78  170/  8/ 12 1016.2R
SABINE PASS N    1000            79 80  170/ 11/ 15 1017.3R
TEXAS POINT      NOT AVBL
CALCASIEU PASS   1000            79 81  170/ 14/ 17 1015.6R
LK CHARLES BEACH 1000            78 77              1017.2R
MARSH ISLAND     1000            79                   N/A
FRESH WATER LOCK 1000            78 81  130/ 10/ 15 1018.1R
AMERADA PASS     1000            77 74  120/  4/  7 1017.4R
$$




USA.gov is the U.S. government's official web portal to all federal, state and local government web resources and services.